Weather History for KNJK - October, 2011

Change the Weather History Date:

Saturday, October 22, 2011

  Actual Average Record
Temperature  
Mean Temperature 81 °F -  
Max Temperature 98 °F 84 °F 102 °F (2003)
Min Temperature 64 °F 59 °F 42 °F (1996)
Cooling Degree Days 16    
Growing Degree Days 31 (Base 50)    
Moisture  
Dew Point 46 °F    
Average Humidity 36    
Maximum Humidity 61    
Minimum Humidity 14    
Precipitation  
Precipitation 0.00 in - - ()
Sea Level Pressure  
Sea Level Pressure 29.97 in    
Wind  
Wind Speed 5 mph (WNW)    
Max Wind Speed 8 mph    
Max Gust Speed -    
Visibility 10 miles    
Events      
Averages and records for this station are not official NWS values.
T = Trace of Precipitation, MM = Missing Value Source: NWS Daily Summary

Daily Weather History Graph

Daily Weather History Graph

Search for Another Location

Airport or City:

Trip Planner

Search our weather history database for the weather conditions in past years. The results will help you decide how hot, cold, wet, or windy it might be!

Date:

Astronomy

Oct. 22, 2011 Rise Set
Actual Time 6:52 AM PDT 6:01 PM PDT
Civil Twilight 6:26 AM PDT 6:26 PM PDT
Nautical Twilight 5:58 AM PDT 6:55 PM PDT
Astronomical Twilight 5:29 AM PDT 7:24 PM PDT
Moon 2:09 AM PDT (10/22) 3:09 PM PDT (10/22)
Length of Visible Light 11h 59m
Length of Day
11h 09m
Waning Crescent, 22% of the Moon is Illuminated
Oct 22
Waning Crescent
Oct 26
New
Nov 2
First Quarter
Nov 10
Full
Nov 18
Last Quarter

Hourly Weather History & Observations

Time (PDT) Temp. Dew Point Humidity Pressure Visibility Wind Dir Wind Speed Gust Speed Precip Events Conditions
12:56 AM 68.0 °F 54.0 °F 61% 30.00 in 10.0 mi West 3.5 mph - N/A   Clear
1:56 AM 66.9 °F 50.0 °F 54% 29.99 in 10.0 mi West 5.8 mph - N/A   Clear
2:56 AM 66.0 °F 48.0 °F 52% 29.99 in 10.0 mi West 8.1 mph - N/A   Clear
3:56 AM 64.9 °F 48.0 °F 54% 29.98 in 10.0 mi West 5.8 mph - N/A   Clear
4:56 AM 64.9 °F 46.9 °F 52% 29.99 in 10.0 mi West 6.9 mph - N/A   Clear
5:56 AM 66.0 °F 46.9 °F 50% 30.00 in 10.0 mi West 8.1 mph - N/A   Clear
6:56 AM 64.9 °F 48.0 °F 54% 30.00 in 10.0 mi West 5.8 mph - N/A   Clear
7:56 AM 66.9 °F 50.0 °F 54% 30.02 in 10.0 mi West 5.8 mph - N/A   Clear
8:56 AM 75.9 °F 51.1 °F 42% 30.03 in 10.0 mi West 4.6 mph - N/A   Clear
9:56 AM 84.9 °F 45.0 °F 25% 30.03 in 10.0 mi WNW 6.9 mph - N/A   Clear
10:56 AM 91.0 °F 41.0 °F 17% 30.03 in 10.0 mi NNW 5.8 mph - N/A   Clear
11:56 AM 93.9 °F 39.0 °F 15% 30.00 in 10.0 mi NNE 6.9 mph - N/A   Clear
12:56 PM 96.1 °F 39.9 °F 14% 29.98 in 10.0 mi NE 8.1 mph - N/A   Clear
1:56 PM 96.1 °F 44.1 °F 17% 29.95 in 10.0 mi ENE 8.1 mph - N/A   Clear
2:56 PM 98.1 °F 42.1 °F 15% 29.94 in 10.0 mi NNW 8.1 mph - N/A   Clear
3:56 PM 97.0 °F 45.0 °F 17% 29.92 in 10.0 mi WNW 6.9 mph - N/A   Clear
4:56 PM 96.1 °F 45.0 °F 17% 29.91 in 10.0 mi NW 4.6 mph - N/A   Clear
5:56 PM 91.0 °F 46.0 °F 21% 29.91 in 10.0 mi West 3.5 mph - N/A   Clear
6:56 PM 82.9 °F 46.0 °F 27% 29.91 in 10.0 mi Calm Calm - N/A   Clear
7:56 PM 79.0 °F 48.9 °F 35% 29.92 in 10.0 mi Calm Calm - 0.00 in   Clear
8:56 PM 73.9 °F 50.0 °F 43% 29.93 in 10.0 mi Calm Calm - N/A   Clear
9:56 PM 73.0 °F 46.9 °F 39% 29.94 in 10.0 mi Calm Calm - N/A   Clear
10:03 PM - - N/A% - - North - - N/A   Unknown
10:56 PM 70.0 °F 46.9 °F 44% 29.94 in 10.0 mi West 5.8 mph - N/A   Clear
11:56 PM 71.1 °F 41.0 °F 34% 29.94 in 10.0 mi West 6.9 mph - N/A   Clear